Regional Weather Roundup
Issued by NWS

Home | Current Version | Previous Version | Text Only | Print | Product List | Glossary On
Versions: 1 2 3 4 5 6 7 8 9 10 11 12 13 14 15 16 17 18 19 20 21 22 23 24 25 26 27 28 29 30 31 32 33 34 35 36 37 38 39 40 41 42 43 44 45 46 47 48 49 50
000
ASUS43 KMPX 271901
RWRMN
WEATHER ROUNDUP FOR MINNESOTA
NATIONAL WEATHER SERVICE TWIN CITIES/CHANHASSEN MN
200 PM CDT SAT MAY 27 2017


NOTE: "FAIR" INDICATES FEW OR NO CLOUDS BELOW 12,000 FEET WITH NO
SIGNIFICANT WEATHER AND/OR OBSTRUCTIONS TO VISIBILITY. N/A MEANS
CURRENT SKY AND/OR WEATHER CONDITIONS ARE NOT AVAILABLE.

MNZ060>063-068>070-272000-
   Twin Cities Metro

CITY           SKY/WX    TMP DP  RH WIND       PRES   REMARKS
TWIN CITIES    CLOUDY    69  44  40 W7        29.90F
ST PAUL        CLOUDY    69  47  45 SW7       29.90F
CRYSTAL        PTSUNNY   70  43  37 S9        29.88F
BLAINE         CLOUDY    72  45  37 SW5       29.90F
LAKEVILLE      CLOUDY    64  52  63 CALM      29.91F
EDEN PRAIRIE   CLOUDY    68  47  46 S8        29.89F
SOUTH ST PAUL  CLOUDY    65  50  58 SW8       29.90F
LAKE ELMO      FAIR      68  46  45 W3        29.91F
$$
MNZ001>005-007-008-013>017-022>024-027-028-272000-
   Northwest Minnesota

CITY           SKY/WX    TMP DP  RH WIND       PRES   REMARKS
BEMIDJI        SUNNY     73  37  27 W13G22    29.80S
HALLOCK        MOSUNNY   73  30  20 W17G23    29.71S
ROSEAU         CLOUDY    70  45  40 W10       29.72S
WARROAD        CLOUDY    72  46  40 SW13G20   29.72S
CROOKSTON      PTSUNNY   72  39  30 W14G28    29.77R
FOSSTON        SUNNY     73  37  27 SW13      29.79S
DETROIT LAKES  MOSUNNY   73  37  27 SW12G20   29.83S
MOORHEAD       MOSUNNY   79  34  19 W17G26    29.80F
PARK RAPIDS    PTSUNNY   75  38  26 W20G26    29.82F
MAHNOMEN       FAIR      74  36  24 W14G20    29.79F
$$
MNZ006-009>011-018-025>026-272000-
   North Central Minnesota

CITY           SKY/WX    TMP DP  RH WIND       PRES   REMARKS
BAUDETTE       CLOUDY    75  39  27 SW15      29.73S
FLAG ISLAND    CLOUDY    64  39  39 NW3G9     29.70S HAZE
INTL FALLS     PTSUNNY   71  36  27 SW12G22   29.75S
WASKISH        PTSUNNY   72  45  37 SW14G20   29.77F
BIG FORK       MOSUNNY   70  37  30 W7G22     29.79S
LONGVILLE      MOSUNNY   73  39  29 SW9       29.82S
GRAND RAPIDS   MOSUNNY   72  41  32 SW10      29.83F
CRANE LAKE     CLOUDY    72  37  28 W8        29.79S
ORR            CLOUDY    70  36  28 CALM      29.76F
COOK           CLOUDY    72  41  33 SW10      29.80F
WALKER         FAIR      73  39  29 SW10G21   29.80F
$$
MNZ012-019>021-037-272000-
   Northeast Minnesota

CITY           SKY/WX    TMP DP  RH WIND       PRES   REMARKS
DULUTH         MOSUNNY   72  41  32 W7        29.84
ELY            MOSUNNY   68  41  37 W6        29.81F
HIBBING        CLOUDY    71  39  31 W9        29.82F
EVELETH        CLOUDY    73  28  19 SW10G20   29.83F
DULUTH HARBOR  MOSUNNY   73  45  35 SW7       29.84S
TWO HARBORS    CLOUDY    75  46  35 NW3       29.81F
SILVER BAY     CLOUDY    73  41  31 W7        29.81S
GRAND MARAIS     N/A     48  42  80 SW13      29.82R
G MARAIS ARPRT MOSUNNY   68  37  32 SW7       29.84S
$$
MNZ029>031-032-039>041-046>048-054>057-064-272000-
   West Central Minnesota

CITY           SKY/WX    TMP DP  RH WIND       PRES   REMARKS
FERGUS FALLS   CLOUDY    73  39  29 W17G23    29.81F
WHEATON        MOSUNNY   73  34  23 SW12      29.86F
MORRIS         CLOUDY    72  45  37 SW8       29.87F
ALEXANDRIA     PTSUNNY   71  42  35 SW20      29.88F
ELBOW LAKE     CLOUDY    68  41  37 SW10      29.86S
WADENA         PTSUNNY   70  43  37 W12G18    29.84S
GLENWOOD       CLOUDY    66  45  45 SW9       29.90S
APPLETON       CLOUDY    72  37  28 SW6       29.88S
BENSON         CLOUDY    70  43  37 W10       29.90S
ORTONVILLE     CLOUDY    72  41  33 W10       29.88S
MADISON        CLOUDY    73  43  33 SW7       29.88F
WILLMAR        FAIR      72  45  37 SW13      29.90F
$$
MNZ033>034-036-042>043-049>051-058-059-272000-
   Central Minnesota

CITY           SKY/WX    TMP DP  RH WIND       PRES   REMARKS
ST CLOUD       CLOUDY    70  44  39 SW9       29.89F
SAUK CENTRE    CLOUDY    69  45  42 SW10      29.89S
PAYNESVILLE    MOSUNNY   71  41  33 SW9G16    29.90F
AITKIN         PTSUNNY   72  43  35 SW12G18   29.84S
PINE RIVER     PTSUNNY   73  45  35 SW15G23   29.87S
BRAINERD       MOSUNNY   73  40  30 SW9       29.85F
STAPLES        MOSUNNY   73  36  25 W14G21    29.85S
LONG PRAIRIE   CLOUDY    68  41  37 SW8       29.88S
LITTLE FALLS   MOSUNNY   72  37  28 W9        29.87F
LITCHFIELD     CLOUDY    70  48  46 SW5       29.91F
BUFFALO        CLOUDY    69  46  44 SW5       29.91F
MAPLE LAKE     CLOUDY    70  50  49 SW3       29.91F
HUTCHINSON     PTSUNNY   69  49  48 SW6       29.92F
$$
MNZ037-044-045-052-053-272000-
   East Central Minnesota

CITY           SKY/WX    TMP DP  RH WIND       PRES   REMARKS
PRINCETON      CLOUDY    72  46  40 S6        29.90F
MORA           CLOUDY    68  43  40 SW8       29.90S
CAMBRIDGE      CLOUDY    72  50  46 SW7       29.88F
RUSH CITY      CLOUDY    70  46  41 W7        29.89F
MOOSE LAKE     CLOUDY    70  43  37 SW7       29.85S
HINCKLEY       FAIR      70  46  43 SW10      29.88S
CLOQUET        MOSUNNY   72  36  26 SW12      29.85S
MCGREGOR       MOSUNNY   70  39  32 SW7       29.86S
$$
MNZ071>073-080-081-089-090-097-098-272000-
   Southwest Minnesota

CITY           SKY/WX    TMP DP  RH WIND       PRES   REMARKS
MONTEVIDEO     CLOUDY    75  48  38 W6        29.89F
CANBY          CLOUDY    70  46  41 CALM      29.90F
MARSHALL       CLOUDY    70  46  42 SW8       29.91F
REDWOOD FALLS  CLOUDY    70  37  29 S5        29.91F
OLIVIA         CLOUDY    70  46  43 SW8       29.90F
PIPESTONE      CLOUDY    66  43  42 N7        29.93F
WINDOM         CLOUDY    63  52  67 S10       29.94F
WORTHINGTON    CLOUDY    62  49  62 SW10      29.96F
JACKSON        CLOUDY    63  50  63 CALM      29.95F
TRACY          CLOUDY    69  50  50 W6        29.92F
SLAYTON        CLOUDY    65  47  52 SW12      29.95F
$$
MNZ065>067-074>077-082>085-091>093-272000-
   South Central Minnesota

CITY           SKY/WX    TMP DP  RH WIND       PRES   REMARKS
MANKATO        PTSUNNY   65  48  54 S6        29.93F
NEW ULM        PTSUNNY   68  45  42 SW7       29.92S
ST JAMES       CLOUDY    64  48  55 SW7       29.95S
FAIRMONT       CLOUDY    65  46  50 CALM      29.94F
GLENCOE        CLOUDY    69  52  53 W7        29.91F
FARIBAULT      CLOUDY    64  48  55 CALM      29.93S
OWATONNA       CLOUDY    66  45  45 NW6       29.92F
WASECA         CLOUDY    64  43  45 N8        29.94F
ALBERT LEA     CLOUDY    72  48  43 CALM      29.93S
$$
MNZ078>079-086>088-094>096-272000-
   Southeast Minnesota

CITY           SKY/WX    TMP DP  RH WIND       PRES   REMARKS
ROCHESTER      CLOUDY    68  48  48 N6        29.93S
RED WING       CLOUDY    68  45  42 N6        29.91F
STANTON        CLOUDY    65  47  50 NW5       29.91F
DODGE CENTER   CLOUDY    68  43  40 NW6       29.93S
WINONA         CLOUDY    73  46  38 NW9       29.92R
AUSTIN         CLOUDY    68  48  49 CALM      29.93R
PRESTON        CLOUDY    69  45  42 NW7       29.93S
$$
ABBREVIATIONS USED IN REMARKS
   TC - TEMPERATURES IN CELSIUS
  WCI - WIND CHILL INDEX
   HX - HEAT INDEX
  VSB - VISIBILITY
$$




USA.gov is the U.S. government's official web portal to all federal, state and local government web resources and services.